Home   Weather   Schenectady   Past weeks
Flag for USA

Past Weather in Schenectady, New York, USA — Yesterday and Last 2 Weeks

Now
50 °F

Partly sunny.


Feels Like: 44 °F
Forecast: 51 / 42 °F
Wind: 17 mph from West

Location: Albany County Airport

Current Time: Oct 18, 2019 at 1:27:49 pm

Latest Report: Oct 18, 2019 at 12:51 pm


Visibility: 10 mi

Pressure: 29.85 "Hg

Humidity: 63%

Dew Point: 38 °F

Location of SchenectadyLocation

Past Weather in Schenectady — Graph

°F

Schenectady Temperature Yesterday

Maximum temperature yesterday: 52 °F (at 12:51 am)
Minimum temperature yesterday: 47 °F (at 4:51 am)
Average temperature yesterday: 50 °F

High & Low Weather Summary for the Past Weeks

 TemperatureHumidityPressure
High71 °F (Oct 14, 3:51 pm)93% (Oct 8, 2:51 am)30.51 "Hg (Oct 8, 2:51 am)
Low36 °F (Oct 5, 3:51 am)34% (Oct 11, 2:51 pm)29.11 "Hg (Oct 17, 9:51 am)
Average54 °F71%30.07 "Hg
* Reported Oct 3 11:51 am — Oct 18 11:51 am, Schenectady. Weather by CustomWeather, © 2019

Note: Actual official high and low records may vary slightly from our data, if they occured in-between our weather recording intervals... More about our weather records

Advertising

Schenectady Weather History for the Previous 24 Hours

Scroll right to see more
 ConditionsComfort  
Time TempWeatherWind HumidityBarometerVisibility
11:51 am
Fri, Oct 18
50 °FPartly sunny.15 mph63%29.85 "Hg10 mi
11:31 am50 °FPartly sunny.20 mph63%29.84 "Hg10 mi
10:51 am50 °FPartly sunny.14 mph63%29.83 "Hg10 mi
9:51 am49 °FPartly sunny.9 mph66%29.82 "Hg10 mi
8:51 am49 °FPartly sunny.10 mph66%29.80 "Hg10 mi
7:51 am47 °FBroken clouds.15 mph71%29.75 "Hg10 mi
7:25 am47 °FBroken clouds.16 mph71%29.75 "Hg10 mi
6:51 am48 °FMostly cloudy.9 mph68%29.73 "Hg10 mi
5:51 am48 °FMostly cloudy.12 mph71%29.70 "Hg10 mi
4:51 am48 °FOvercast.15 mph71%29.68 "Hg10 mi
3:51 am49 °FOvercast.17 mph69%29.65 "Hg10 mi
2:51 am49 °FOvercast.15 mph71%29.63 "Hg10 mi
1:51 am50 °FOvercast.17 mph68%29.60 "Hg10 mi
12:51 am51 °FOvercast.14 mph66%29.57 "Hg10 mi
11:51 pm
Thu, Oct 17
51 °FPassing clouds.20 mph66%29.53 "Hg10 mi
10:51 pm51 °FPartly cloudy.22 mph66%29.50 "Hg10 mi
10:21 pm51 °FOvercast.22 mph71%29.49 "Hg10 mi
9:51 pm51 °FMostly cloudy.10 mph74%29.48 "Hg10 mi
8:51 pm51 °FLight rain. Mostly cloudy.17 mph71%29.45 "Hg10 mi
7:51 pm51 °FLight rain. Mostly cloudy.16 mph69%29.41 "Hg10 mi
6:51 pm51 °FLight rain. Mostly cloudy.15 mph69%29.38 "Hg10 mi
5:51 pm51 °FMostly cloudy.16 mph69%29.35 "Hg10 mi
4:51 pm52 °FMore clouds than sun.16 mph69%29.30 "Hg10 mi
3:51 pm51 °FLight rain. Mostly cloudy.20 mph71%29.26 "Hg10 mi
2:51 pm51 °FDrizzle. More clouds than sun.22 mph71%29.22 "Hg10 mi
1:51 pm51 °FMostly cloudy.18 mph71%29.17 "Hg10 mi
Weather by CustomWeather, © 2019

See weather overview